Racecast

AC:Belfast, Erskine, Skowhegan, Gardiner, Morse @ Winslow

Winslow High School · 5000m · Boys · Varsity · 2011-09-02 · ME

Course difficulty: +0.030

Race-day weather: 64°F · wind 5 mph · humidity 80%

View full meet →

Team scores

Place Team Points 12345 67
1 Erskine Academy (ME) 56 3 8 9 15 21 27 28
2 Winslow (ME) 57 2 6 12 13 24 26
3 Gardiner Area (ME) 67 4 5 10 19 29 30 32
4 Belfast Area (ME) 70 1 14 17 18 20 22
5 Morse (ME) 82 7 11 16 23 25 31

Computed: five scorers, two displacers, incomplete teams removed.

Results

Place Athlete Grade School Time Rating Points
1 Luis Mauser 10 Belfast Area (ME) 1 17:43.6 SR 124.3 1
2 Nick Shuckrow 11 Winslow (AZ) 1 17:44.3 SR 124.3 2
3 Brendan Wood 12 Erskine Academy (ME) 1 19:12.3 SR 114.8 3
4 Christian Heath 11 Gardiner Area (ME) 1 19:17.5 PR 114.2 4
5 Brad McCollett 12 Gardiner Area (ME) 2 19:20.7 SR 113.9 5
6 Griffin Davis 11 Winslow (AZ) 2 19:24.2 SR 113.6 6
7 Ben Wright 12 Morse (ME) 1 19:35.3 PR 112.5 7
8 Spencer Gray 12 Erskine Academy (ME) 2 19:40.7 SR 112.0 8
9 Erik Dodge 10 Erskine Academy (ME) 3 19:48.8 PR 111.2 9
10 Zachary Woodard 11 Gardiner Area (ME) 3 19:57.8 PR 110.4 10
11 Nate Stover 11 Morse (ME) 2 19:58.4 SR 110.3 11
12 Caleb Ellis 9 Winslow (AZ) 3 20:30.3 PR 107.5 12
13 Thomas Cassidy 10 Winslow (AZ) 4 20:32.2 SR 107.3 13
14 Ari Snider 10 Belfast Area (ME) 2 20:59.5 SR 105.0 14
15 Robbie Fasano 12 Erskine Academy (ME) 4 21:10.2 PR 104.1 15
16 Cody Musolff 11 Morse (ME) 3 21:13.9 SR 103.8 16
17 John Loxterkamp 12 Belfast Area (ME) 3 21:28.8 PR 102.6 17
18 Brent Waterman 11 Belfast Area (ME) 4 21:30.2 PR 102.5 18
19 Mike Tarrio 12 Gardiner Area (ME) 4 21:30.9 SR 102.5 19
20 Grant Richards 11 Belfast Area (ME) 5 21:39.3 SR 101.8 20
21 Tom Ferguson 12 Erskine Academy (ME) 5 21:49.6 SR 101.0 21
22 Miles Lamar 11 Belfast Area (ME) 6 21:50.8 SR 100.9 22
23 Kyle Bauer 10 Morse (ME) 4 22:07.5 PR 99.6 23
24 Connor Bourgoin 12 Winslow (AZ) 5 22:12.2 PR 99.3 24
25 Balt von Huene 9 Morse (ME) 5 22:58.6 PR 95.9 25
26 Cody Speropolous 11 Winslow (AZ) 6 23:02.9 SR 95.6 26
27 Zach Childs 10 Erskine Academy (ME) 6 23:05.8 PR 95.4 27
28 Adam Bovie 9 Erskine Academy (ME) 7 23:08.5 PR 95.2 28
29 Hongtao Wu 12 Gardiner Area (ME) 5 23:34.4 PR 93.5 29
30 Mike Caliandro - Gardiner Area (ME) 6 23:49.1 PR 92.5 30
31 Noah LaPointe 10 Morse (ME) 6 25:10.5 PR 87.5 31
32 Sam Temple 11 Gardiner Area (ME) 7 26:23.4 PR 83.5 32
Something wrong on this page? Report it →